Home > Weather > Oviedo > Past weeks

Flag for Spain Past Weather in Oviedo, Spain — Yesterday and Last 2 Weeks

Now
65 °F

Mild.


Feels Like: 65 °F
Forecast: 60 / 71 °F
Wind: 2 mph from South

Location: Oviedo

Current Time: Jul 25, 2016 at 2:27:58 AM

Latest Report: Jul 25, 2016 at 1:00 AM


Visibility: 4 mi

Pressure: 30.22 "Hg

Humidity: 88%

Dew Point: 61 °F

Location of OviedoLocation

Past Weather in Oviedo — Graph

°F

Oviedo Temperature Yesterday

Maximum temperature yesterday: 78 °F (at 3:00 PM)
Minimum temperature yesterday: 60 °F (at 7:00 AM)
Average temperature yesterday: 68 °F

High & Low Weather Summary for the Past Weeks

 TemperatureHumidityPressure
High97 °F (Jul 18, 5:00 PM)100% (Jul 10, 5:00 AM)30.38 "Hg (Jul 10, 5:00 AM)
Low50 °F (Jul 14, 7:00 AM)30% (Jul 18, 6:00 PM)29.86 "Hg (Jul 18, 7:00 PM)
Average66 °F79%30.14 "Hg
* Reported Jul 10 1:00 AM — Jul 25 1:00 AM, Oviedo, Weather by CustomWeather, © 2016

Note: Actual official high and low records may vary slightly from our data, if they occured in-between our weather recording intervals... More about our weather records

Advertising

Oviedo Weather History for the Previous 24 Hours

Scroll right to see more
 ConditionsComfort  
Time TempWeatherWind HumidityBarometerVisibility
1:00 AM
Mon, Jul 25
65 °FMild.2 mph88%30.22 "Hg4 mi
12:00 AM65 °FMild.5 mph86%30.22 "Hg2 mi
11:00 PM
Sun, Jul 24
67 °FOvercast.2 mph82%30.21 "Hg12 mi
10:00 PM67 °FMild.3 mph81%30.19 "Hg12 mi
9:00 PM70 °FMild.5 mph75%30.18 "Hg1 mi
8:00 PM72 °FPassing clouds.5 mph70%30.16 "Hg12 mi
7:00 PM74 °FMild.6 mph66%30.15 "Hg12 mi
6:00 PM75 °FMild.8 mph65%30.15 "Hg12 mi
5:00 PM77 °FPassing clouds.7 mph63%30.15 "Hg12 mi
4:00 PM78 °FWarm.6 mph62%30.15 "Hg12 mi
3:00 PM78 °FWarm.6 mph61%30.16 "Hg12 mi
2:00 PM77 °FPassing clouds.6 mph61%30.17 "Hg12 mi
1:00 PM74 °FMild.5 mph64%30.19 "Hg12 mi
12:00 PM72 °FMild.5 mph65%30.20 "Hg12 mi
11:00 AM70 °FPassing clouds.6 mph73%30.20 "Hg9 mi
10:00 AM66 °FMild.2 mph82%30.22 "Hg12 mi
9:00 AM62 °FCool.3 mph93%30.23 "Hg9 mi
8:00 AM61 °FFog.1 mph98%30.23 "Hg4 mi
7:00 AM60 °FCool.1 mph98%30.22 "Hg7 mi
6:00 AM61 °FCool.2 mph95%30.22 "Hg9 mi
5:00 AM63 °FOvercast.2 mph91%30.22 "Hg9 mi
4:00 AM63 °FMild.3 mph91%30.24 "Hg12 mi
3:00 AM63 °FMild.3 mph90%30.25 "Hg12 mi
2:00 AM63 °FOvercast.3 mph90%30.26 "Hg9 mi
Weather by CustomWeather, © 2016

See weather overviewHow to use our weather pages